This is the latest recevied weather packets stored in our database for station/object PY2UTU-WX. If no packets are shown the sender has not sent any weather packets the latest 10 day(s).
| Time | Temp. | Humidity | Pressure | Rain* | Wind** | Luminosity | Snow |
|---|---|---|---|---|---|---|---|
| 1777542141 | 22.78° C | 98% | 922.8 hPa | - | - | - | - |
| 1777541241 | 22.22° C | 98% | 922.9 hPa | - | - | - | - |
| 1777540341 | 22.22° C | 98% | 922.7 hPa | - | - | - | - |
| 1777539441 | 22.22° C | 98% | 922.5 hPa | - | - | - | - |
| 1777538541 | 22.22° C | 98% | 922.3 hPa | - | - | - | - |
| 1777537641 | 22.22° C | 98% | 922.6 hPa | - | - | - | - |
| 1777536741 | 21.67° C | 98% | 922.4 hPa | - | - | - | - |
| 1777535842 | 21.11° C | 98% | 921.5 hPa | - | - | - | - |
| 1777534941 | 21.67° C | 98% | 922.7 hPa | - | - | - | - |
| 1777534041 | 21.67° C | 98% | 922.8 hPa | - | - | - | - |
| 1777533141 | 21.67° C | 98% | 923.2 hPa | - | - | - | - |
| 1777532241 | 22.22° C | 98% | 923.6 hPa | - | - | - | - |
| 1777531341 | 22.22° C | 98% | 924.1 hPa | - | - | - | - |
| 1777530441 | 21.67° C | 98% | 924.4 hPa | - | - | - | - |
| 1777529541 | 21.67° C | 98% | 924.7 hPa | - | - | - | - |
| 1777528641 | 20.56° C | 98% | 924.9 hPa | - | - | - | - |
| 1777527741 | 21.11° C | 98% | 925.1 hPa | - | - | - | - |
| 1777526841 | 20.56° C | 98% | 925 hPa | - | - | - | - |
| 1777525942 | 21.11° C | 98% | 924.9 hPa | - | - | - | - |
| 1777525041 | 20.56° C | 98% | 925.2 hPa | - | - | - | - |
| 1777524141 | 18.89° C | 98% | 924.6 hPa | - | - | - | - |
| 1777523241 | 19.44° C | 98% | 924.6 hPa | - | - | - | - |
| 1777522341 | 18.89° C | 98% | 924.5 hPa | - | - | - | - |
| 1777521441 | 19.44° C | 98% | 924.8 hPa | - | - | - | - |
| 1777520541 | 20° C | 98% | 924.9 hPa | - | - | - | - |
* Rain since midnight (hover to see other rain measurements)
** Current wind speed in m/s (hover to see current wind gust speed)